When you browse on this site, cookies collect data to enhance your experience and personalize the content and advertising you see.
Visit our Privacy Policy to learn more. By continuing to use the site, you agree to this use of cookies and data.
  • în România
  • Lista ţărilor
  • Pe 7 zile
  • Temperatura apei
  • Hartă satelitară
  • Meteo pe hartă
  • Widget-uri
  • user-avatar
    Intrare

    Meteo pe oră la Modliszow

    Astăzi, 19 Decembrie, Miercuri

    Timp Temperatura Precipitaţii Vânt Presiune Umiditate
    00:00 -3°C° 0 mm 2 m/s 727 mmHg 92%
    01:00 -3°C° 0 mm 2 m/s 726 mmHg 91%
    02:00 -4°C° 0 mm 3 m/s 726 mmHg 91%
    03:00 -4°C° 0 mm 3 m/s 726 mmHg 90%
    04:00 -4°C° 0 mm 3 m/s 726 mmHg 90%
    05:00 -4°C° 0 mm 3 m/s 725 mmHg 89%
    06:00 -4°C° 0 mm 3 m/s 725 mmHg 89%
    07:00 -5°C° 0 mm 3 m/s 725 mmHg 89%
    08:00 -4°C° 0 mm 4 m/s 725 mmHg 86%
    09:00 -3°C° 0 mm 4 m/s 725 mmHg 83%
    10:00 -3°C° 0 mm 4 m/s 725 mmHg 81%
    11:00 -2°C° 0 mm 5 m/s 724 mmHg 79%
    12:00 -2°C° 0 mm 5 m/s 724 mmHg 78%
    13:00 -2°C° 0 mm 5 m/s 724 mmHg 76%
    14:00 -2°C° 0 mm 5 m/s 724 mmHg 78%
    15:00 -4°C° 0 mm 5 m/s 723 mmHg 79%
    16:00 -3°C° 0 mm 4 m/s 723 mmHg 80%
    17:00 -3°C° 0 mm 4 m/s 723 mmHg 80%
    18:00 -3°C° 0 mm 4 m/s 723 mmHg 80%
    19:00 -4°C° 0 mm 4 m/s 722 mmHg 80%
    20:00 -4°C° 0.1 mm 4 m/s 722 mmHg 80%
    21:00 -4°C° 0.1 mm 4 m/s 722 mmHg 80%
    22:00 -4°C° 0.1 mm 4 m/s 722 mmHg 80%
    23:00 -4°C° 0.2 mm 4 m/s 722 mmHg 80%

    Mâine, 20 Decembrie, Joi

    Timp Temperatura Precipitaţii Vânt Presiune Umiditate
    00:00 -4°C° 0.2 mm 4 m/s 722 mmHg 81%
    01:00 -4°C° 0.2 mm 4 m/s 722 mmHg 81%
    02:00 -4°C° 0.2 mm 3 m/s 722 mmHg 82%
    03:00 -4°C° 0.2 mm 3 m/s 722 mmHg 83%
    04:00 -5°C° 0.2 mm 3 m/s 722 mmHg 83%
    05:00 -5°C° 0.2 mm 3 m/s 722 mmHg 84%
    06:00 -5°C° 0.2 mm 3 m/s 722 mmHg 84%
    07:00 -5°C° 0.2 mm 3 m/s 722 mmHg 85%
    08:00 -5°C° 0.1 mm 3 m/s 722 mmHg 84%
    09:00 -4°C° 0.1 mm 4 m/s 722 mmHg 84%
    10:00 -4°C° 0.1 mm 4 m/s 722 mmHg 83%
    11:00 -4°C° 0.1 mm 4 m/s 722 mmHg 83%
    12:00 -2°C° 0.1 mm 3 m/s 722 mmHg 84%
    13:00 -2°C° 0.1 mm 3 m/s 722 mmHg 85%
    14:00 -2°C° 0.1 mm 3 m/s 722 mmHg 86%
    15:00 -2°C° 0.1 mm 3 m/s 722 mmHg 87%
    16:00 -2°C° 0.1 mm 3 m/s 722 mmHg 88%
    17:00 -2°C° 0 mm 3 m/s 722 mmHg 88%
    18:00 -1°C° 0 mm 3 m/s 722 mmHg 88%
    19:00 -1°C° 0 mm 3 m/s 723 mmHg 88%
    20:00 -1°C° 0 mm 3 m/s 723 mmHg 89%
    21:00 -1°C° 0 mm 3 m/s 723 mmHg 89%
    22:00 -1°C° 0 mm 3 m/s 723 mmHg 90%
    23:00 -2°C° 0 mm 4 m/s 722 mmHg 89%

    Poimâine, 21 Decembrie, Vineri

    Timp Temperatura Precipitaţii Vânt Presiune Umiditate
    00:00 -2°C° 0 mm 4 m/s 722 mmHg 89%
    01:00 -1°C° 0 mm 4 m/s 722 mmHg 89%
    02:00 -1°C° 0 mm 4 m/s 722 mmHg 89%
    03:00 -1°C° 0 mm 4 m/s 722 mmHg 89%
    04:00 -1°C° 0 mm 4 m/s 721 mmHg 89%
    05:00 -1°C° 0.3 mm 4 m/s 721 mmHg 88%
    06:00 -1°C° 0.3 mm 5 m/s 721 mmHg 88%
    07:00 -1°C° 0.3 mm 5 m/s 720 mmHg 87%
    08:00 -1°C° 0.1 mm 5 m/s 720 mmHg 87%
    09:00 -1°C° 0.1 mm 5 m/s 720 mmHg 86%
    10:00 0°C° 0.1 mm 5 m/s 719 mmHg 85%
    11:00 0°C° 0.3 mm 5 m/s 719 mmHg 85%
    12:00 0°C° 0.3 mm 5 m/s 718 mmHg 85%
    13:00 -1°C° 0.3 mm 6 m/s 717 mmHg 84%
    14:00 -1°C° 0.5 mm 6 m/s 716 mmHg 85%
    15:00 -1°C° 0.5 mm 6 m/s 716 mmHg 85%
    16:00 -1°C° 0.5 mm 6 m/s 715 mmHg 85%
    17:00 +1°C° 1 mm 6 m/s 714 mmHg 86%
    18:00 0°C° 1 mm 7 m/s 714 mmHg 86%
    19:00 +2°C° 1 mm 7 m/s 713 mmHg 87%
    20:00 +2°C° 0.3 mm 7 m/s 713 mmHg 87%
    21:00 +3°C° 0.3 mm 7 m/s 713 mmHg 87%
    22:00 +4°C° 0.3 mm 7 m/s 713 mmHg 86%
    23:00 +4°C° 0.1 mm 7 m/s 713 mmHg 87%

    22 Decembrie, Sâmbătă

    Timp Temperatura Precipitaţii Vânt Presiune Umiditate
    00:00 +4°C° 0.1 mm 7 m/s 713 mmHg 88%
    01:00 +4°C° 0.1 mm 7 m/s 714 mmHg 88%
    02:00 +3°C° 0 mm 6 m/s 714 mmHg 87%
    03:00 +3°C° 0 mm 6 m/s 714 mmHg 85%
    04:00 +2°C° 0 mm 6 m/s 714 mmHg 83%
    05:00 +2°C° 0 mm 5 m/s 714 mmHg 84%
    06:00 +2°C° 0 mm 5 m/s 714 mmHg 84%
    07:00 +2°C° 0 mm 5 m/s 714 mmHg 84%
    08:00 +2°C° 0 mm 5 m/s 714 mmHg 84%
    09:00 +3°C° 0 mm 5 m/s 714 mmHg 84%
    10:00 +3°C° 0 mm 5 m/s 714 mmHg 83%
    11:00 +3°C° 0.2 mm 6 m/s 714 mmHg 83%
    12:00 +4°C° 0.2 mm 6 m/s 714 mmHg 82%
    13:00 +4°C° 0.2 mm 6 m/s 714 mmHg 82%
    14:00 +4°C° 0.3 mm 7 m/s 714 mmHg 82%
    15:00 +4°C° 0.3 mm 7 m/s 715 mmHg 82%
    16:00 +4°C° 0.3 mm 8 m/s 715 mmHg 82%
    17:00 +2°C° 0.1 mm 8 m/s 716 mmHg 79%
    18:00 +2°C° 0.1 mm 8 m/s 716 mmHg 77%
    19:00 +1°C° 0.1 mm 8 m/s 717 mmHg 74%
    20:00 +1°C° 0 mm 8 m/s 717 mmHg 76%
    21:00 +2°C° 0 mm 7 m/s 717 mmHg 78%
    22:00 +2°C° 0 mm 7 m/s 718 mmHg 80%
    23:00 0°C° 0 mm 7 m/s 718 mmHg 81%

    23 Decembrie, Duminică

    Timp Temperatura Precipitaţii Vânt Presiune Umiditate
    00:00 +1°C° 0 mm 6 m/s 718 mmHg 82%
    01:00 +1°C° 0 mm 6 m/s 718 mmHg 84%
    02:00 +1°C° 0 mm 6 m/s 718 mmHg 85%
    03:00 +1°C° 0 mm 5 m/s 718 mmHg 86%
    04:00 +1°C° 0 mm 5 m/s 718 mmHg 86%
    05:00 +1°C° 0 mm 5 m/s 719 mmHg 86%
    06:00 +1°C° 0 mm 6 m/s 719 mmHg 85%
    07:00 +1°C° 0 mm 6 m/s 719 mmHg 84%
    08:00 +1°C° 0 mm 6 m/s 720 mmHg 83%
    09:00 +1°C° 0 mm 6 m/s 720 mmHg 82%
    10:00 0°C° 0 mm 7 m/s 720 mmHg 81%
    11:00 0°C° 0 mm 7 m/s 720 mmHg 80%
    12:00 +2°C° 0 mm 7 m/s 720 mmHg 78%
    13:00 +2°C° 0 mm 7 m/s 721 mmHg 77%
    14:00 +2°C° 0 mm 6 m/s 721 mmHg 77%
    15:00 +1°C° 0 mm 6 m/s 721 mmHg 78%
    16:00 +1°C° 0 mm 6 m/s 721 mmHg 79%
    17:00 +1°C° 0.1 mm 5 m/s 721 mmHg 80%
    18:00 +1°C° 0.1 mm 5 m/s 721 mmHg 81%
    19:00 0°C° 0.1 mm 5 m/s 721 mmHg 81%
    20:00 0°C° 0.1 mm 5 m/s 721 mmHg 82%
    21:00 0°C° 0.1 mm 5 m/s 721 mmHg 83%
    22:00 -1°C° 0.1 mm 6 m/s 721 mmHg 84%
    23:00 -1°C° 0.1 mm 6 m/s 721 mmHg 83%

    24 Decembrie, Luni

    Timp Temperatura Precipitaţii Vânt Presiune Umiditate
    00:00 0°C° 0.1 mm 7 m/s 721 mmHg 82%
    01:00 0°C° 0.1 mm 7 m/s 722 mmHg 82%
    02:00 -1°C° 0.4 mm 7 m/s 722 mmHg 83%
    03:00 -1°C° 0.4 mm 6 m/s 722 mmHg 85%
    04:00 0°C° 0.4 mm 5 m/s 723 mmHg 86%
    05:00 0°C° 0.5 mm 5 m/s 723 mmHg 87%
    06:00 0°C° 0.5 mm 4 m/s 724 mmHg 89%
    07:00 0°C° 0.5 mm 4 m/s 724 mmHg 90%
    08:00 0°C° 0.2 mm 4 m/s 725 mmHg 89%
    09:00 0°C° 0.2 mm 4 m/s 725 mmHg 88%
    10:00 0°C° 0.2 mm 4 m/s 726 mmHg 87%
    11:00 +1°C° 0.1 mm 4 m/s 726 mmHg 85%
    12:00 +1°C° 0.1 mm 5 m/s 726 mmHg 83%
    13:00 +1°C° 0.1 mm 5 m/s 726 mmHg 82%
    14:00 +1°C° 0 mm 5 m/s 726 mmHg 83%
    15:00 +1°C° 0 mm 4 m/s 726 mmHg 84%
    16:00 0°C° 0 mm 4 m/s 726 mmHg 85%
    17:00 0°C° 0.1 mm 4 m/s 726 mmHg 86%
    18:00 0°C° 0.1 mm 5 m/s 726 mmHg 86%
    19:00 0°C° 0.1 mm 5 m/s 726 mmHg 86%
    20:00 0°C° 0 mm 5 m/s 727 mmHg 85%
    21:00 -1°C° 0 mm 5 m/s 727 mmHg 84%
    22:00 -1°C° 0 mm 5 m/s 727 mmHg 82%
    23:00 -1°C° 0.1 mm 5 m/s 727 mmHg 83%
    Arată mai mult